Date,TemperatureHighF,TemperatureAvgF,TemperatureLowF,DewpointHighF,DewpointAvgF,DewpointLowF,HumidityHigh,HumidityAvg,HumidityLow,PressureMaxIn,PressureMinIn,WindSpeedMaxMPH,WindSpeedAvgMPH,GustSpeedMaxMPH,PrecipitationSumIn
2013-1-1,30,17,9,-100,-100,-100,0,0,100,0.00,40.00,0,-999,0,0.01
2013-1-2,44,26,16,-100,-100,-100,0,0,100,0.00,40.00,0,-999,0,0.00
2013-1-3,46,32,24,-100,-100,-100,0,0,100,0.00,40.00,0,-999,0,0.01
2013-1-4,49,34,27,-100,-100,-100,0,0,100,0.00,40.00,0,-999,0,0.00
2013-1-5,41,35,30,-100,-100,-100,0,0,100,0.00,40.00,0,-999,0,0.00
2013-1-6,30,25,20,-100,-100,-100,0,0,100,0.00,40.00,0,-999,0,0.02
2013-1-7,42,29,18,-100,-100,-100,0,0,100,0.00,40.00,0,-999,0,0.01
2013-1-8,54,36,27,-100,-100,-100,0,0,100,0.00,40.00,0,-999,0,0.01
2013-1-9,43,37,19,-100,-100,-100,0,0,100,0.00,40.00,0,-999,0,0.01
2013-1-10,18,14,11,-100,-100,-100,0,0,100,0.00,40.00,0,-999,0,0.02
2013-1-11,18,13,7,-100,-100,-100,0,0,100,0.00,40.00,0,-999,0,0.01
2013-1-12,26,10,-2,-100,-100,-100,0,0,100,0.00,40.00,0,-999,0,0.01
2013-1-13,25,10,1,-100,-100,-100,0,0,100,0.00,40.00,0,-999,0,0.01
2013-1-14,31,16,-4,-100,-100,-100,0,0,100,0.00,40.00,0,-999,0,0.01
2013-1-15,45,30,20,-100,-100,-100,0,0,100,0.00,40.00,0,-999,0,0.01
2013-1-16,47,30,23,-100,-100,-100,0,0,100,0.00,40.00,0,-999,0,0.00
2013-1-17,50,32,24,-100,-100,-100,0,0,100,0.00,40.00,0,-999,0,0.00
2013-1-18,52,33,25,-100,-100,-100,0,0,100,0.00,40.00,0,-999,0,0.01
2013-1-19,51,31,24,-100,-100,-100,0,0,100,0.00,40.00,0,-999,0,0.01
2013-1-20,46,32,24,-100,-100,-100,0,0,100,0.00,40.00,0,-999,0,0.01
2013-1-21,53,37,27,-100,-100,-100,0,0,100,0.00,40.00,0,-999,0,0.00
2013-1-22,53,42,33,-100,-100,-100,0,0,100,0.00,40.00,0,-999,0,0.01
2013-1-23,44,39,34,-100,-100,-100,0,0,100,0.00,40.00,0,-999,0,0.01
2013-1-24,41,36,34,-100,-100,-100,0,0,100,0.00,40.00,0,-999,0,0.02
2013-1-25,43,37,32,-100,-100,-100,0,0,100,0.00,40.00,0,-999,0,0.02
2013-1-26,40,34,28,-100,-100,-100,0,0,100,0.00,40.00,0,-999,0,0.01
2013-1-27,27,20,14,-100,-100,-100,0,0,100,0.00,40.00,0,-999,0,0.01
2013-1-28,27,19,7,-100,-100,-100,0,0,100,0.00,40.00,0,-999,0,0.01
2013-1-29,43,34,29,-100,-100,-100,0,0,100,0.00,40.00,0,-999,0,0.01
2013-1-30,49,35,27,-100,-100,-100,0,0,100,0.00,40.00,0,-999,0,0.01
2013-1-31,51,39,26,-100,-100,-100,0,0,100,0.00,40.00,0,-999,0,0.00
2013-2-1,52,38,29,-100,-100,-100,0,0,100,0.00,40.00,0,-999,0,0.01
2013-2-2,46,36,29,-100,-100,-100,0,0,100,0.00,40.00,0,-999,0,0.00
2013-2-3,46,36,27,-100,-100,-100,0,0,100,0.00,40.00,0,-999,0,0.00
2013-2-4,52,38,26,-100,-100,-100,0,0,100,0.00,40.00,0,-999,0,0.01
2013-2-5,42,36,29,-100,-100,-100,0,0,100,0.00,40.00,0,-999,0,0.00
2013-2-6,46,31,19,-100,-100,-100,0,0,100,0.00,40.00,0,-999,0,0.01
2013-2-7,33,27,17,-100,-100,-100,0,0,100,0.00,40.00,0,-999,0,0.01
2013-2-8,24,16,8,-100,-100,-100,0,0,100,0.00,40.00,0,-999,0,0.02
2013-2-9,33,17,7,-100,-100,-100,0,0,100,0.00,40.00,0,-999,0,0.01
2013-2-10,31,21,13,-100,-100,-100,0,0,100,0.00,40.00,0,-999,0,0.01
2013-2-11,36,22,11,-100,-100,-100,0,0,100,0.00,40.00,0,-999,0,0.01
2013-2-12,44,29,17,-100,-100,-100,0,0,100,0.00,40.00,0,-999,0,0.01
2013-2-13,43,30,21,-100,-100,-100,0,0,100,0.00,40.00,0,-999,0,0.01
2013-2-14,44,31,24,-100,-100,-100,0,0,100,0.00,40.00,0,-999,0,0.00
2013-2-15,54,34,22,-100,-100,-100,0,0,100,0.00,40.00,0,-999,0,0.00
2013-2-16,48,36,30,-100,-100,-100,0,0,100,0.00,40.00,0,-999,0,0.00
2013-2-17,46,35,25,-100,-100,-100,0,0,100,0.00,40.00,0,-999,0,0.01
2013-2-18,42,32,26,-100,-100,-100,0,0,100,0.00,40.00,0,-999,0,0.01
2013-2-19,28,21,15,-100,-100,-100,0,0,100,0.00,40.00,0,-999,0,0.00
2013-2-20,32,23,16,-100,-100,-100,0,0,100,0.00,40.00,0,-999,0,0.01
2013-2-21,31,21,16,-100,-100,-100,0,0,100,0.00,40.00,0,-999,0,0.02
2013-2-22,43,31,18,-100,-100,-100,0,0,100,0.00,40.00,0,-999,0,0.01
2013-2-23,33,29,26,-100,-100,-100,0,0,100,0.00,40.00,0,-999,0,0.01
2013-2-24,25,24,23,-100,-100,-100,0,0,100,0.00,40.00,0,-999,0,0.00
2013-2-25,37,29,23,-100,-100,-100,0,0,100,0.00,40.00,0,-999,0,0.00
2013-2-26,40,24,14,-100,-100,-100,0,0,100,0.00,40.00,0,-999,0,0.00
2013-2-27,44,31,20,-100,-100,-100,0,0,100,0.00,40.00,0,-999,0,0.01
2013-2-28,50,37,28,-100,-100,-100,0,0,100,0.00,40.00,0,-999,0,0.00
2013-3-1,55,40,29,-100,-100,-100,0,0,100,0.00,40.00,0,-999,0,0.00
2013-3-2,50,42,35,-100,-100,-100,0,0,100,0.00,40.00,0,-999,0,0.00
2013-3-3,38,34,28,-100,-100,-100,0,0,100,0.00,40.00,0,-999,0,0.02
2013-3-4,48,33,21,-100,-100,-100,0,0,100,0.00,40.00,0,-999,0,0.01
2013-3-5,39,35,31,-100,-100,-100,0,0,100,0.00,40.00,0,-999,0,0.00
2013-3-6,27,25,22,-100,-100,-100,0,0,100,0.00,40.00,0,-999,0,0.04
2013-3-7,32,25,22,-100,-100,-100,0,0,100,0.00,40.00,0,-999,0,0.02
2013-3-8,34,26,21,-100,-100,-100,0,0,100,0.00,40.00,0,-999,0,0.02
2013-3-9,39,28,21,-100,-100,-100,0,0,100,0.00,40.00,0,-999,0,0.01
2013-3-10,51,33,20,-100,-100,-100,0,0,100,0.00,40.00,0,-999,0,0.01
2013-3-11,57,40,28,-100,-100,-100,0,0,100,0.00,40.00,0,-999,0,0.01
2013-3-12,60,42,31,-100,-100,-100,0,0,100,0.00,40.00,0,-999,0,0.01
2013-3-13,60,48,38,-100,-100,-100,0,0,100,0.00,40.00,0,-999,0,0.01
2013-3-14,57,49,43,-100,-100,-100,0,0,100,0.00,40.00,0,-999,0,0.01
2013-3-15,54,46,37,-100,-100,-100,0,0,100,0.00,40.00,0,-999,0,0.01
2013-3-16,50,40,33,-100,-100,-100,0,0,100,0.00,40.00,0,-999,0,0.01
2013-3-17,49,37,29,-100,-100,-100,0,0,100,0.00,40.00,0,-999,0,0.01
2013-3-18,48,38,30,-100,-100,-100,0,0,100,0.00,40.00,0,-999,0,0.00
2013-3-19,47,38,31,-100,-100,-100,0,0,100,0.00,40.00,0,-999,0,0.01
2013-3-20,35,34,32,-100,-100,-100,0,0,100,0.00,40.00,0,-999,0,0.02
2013-3-21,43,34,23,-100,-100,-100,0,0,100,0.00,40.00,0,-999,0,0.01
2013-3-22,47,35,22,-100,-100,-100,0,0,100,0.00,40.00,0,-999,0,0.00
2013-3-23,46,32,18,-100,-100,-100,0,0,100,0.00,40.00,0,-999,0,0.01
2013-3-24,50,38,30,-100,-100,-100,0,0,100,0.00,40.00,0,-999,0,0.01
2013-3-25,50,40,31,-100,-100,-100,0,0,100,0.00,40.00,0,-999,0,0.01
2013-3-26,40,37,34,-100,-100,-100,0,0,100,0.00,40.00,0,-999,0,0.01
2013-3-27,45,38,32,-100,-100,-100,0,0,100,0.00,40.00,0,-999,0,0.01
2013-3-28,46,37,32,-100,-100,-100,0,0,100,0.00,40.00,0,-999,0,0.01
2013-3-29,54,40,29,-100,-100,-100,0,0,100,0.00,40.00,0,-999,0,0.01
2013-3-30,51,42,35,-100,-100,-100,0,0,100,0.00,40.00,0,-999,0,0.00
2013-3-31,42,36,31,-100,-100,-100,0,0,100,0.00,40.00,0,-999,0,0.01
2013-4-1,42,34,29,-100,-100,-100,0,0,100,0.00,40.00,0,-999,0,0.02
2013-4-2,50,38,26,-100,-100,-100,0,0,100,0.00,40.00,0,-999,0,0.01
2013-4-3,56,44,31,-100,-100,-100,0,0,100,0.00,40.00,0,-999,0,0.01
2013-4-4,45,39,35,-100,-100,-100,0,0,100,0.00,40.00,0,-999,0,0.02
2013-4-5,45,37,32,-100,-100,-100,0,0,100,0.00,40.00,0,-999,0,0.01
2013-4-6,44,37,34,-100,-100,-100,0,0,100,0.00,40.00,0,-999,0,0.01
2013-4-7,45,37,29,-100,-100,-100,0,0,100,0.00,40.00,0,-999,0,0.01
2013-4-8,32,28,25,-100,-100,-100,0,0,100,0.00,40.00,0,-999,0,0.01
2013-4-9,44,38,33,-100,-100,-100,0,0,100,0.00,40.00,0,-999,0,0.00
2013-4-10,57,42,30,-100,-100,-100,0,0,100,0.00,40.00,0,-999,0,0.00
2013-4-11,52,44,35,-100,-100,-100,0,0,100,0.00,40.00,0,-999,0,0.01
2013-4-12,56,42,29,-100,-100,-100,0,0,100,0.00,40.00,0,-999,0,0.01
2013-4-13,51,45,37,-100,-100,-100,0,0,100,0.00,40.00,0,-999,0,0.00
2013-4-14,48,40,33,-100,-100,-100,0,0,100,0.00,40.00,0,-999,0,0.01
2013-4-15,36,30,22,-100,-100,-100,0,0,100,0.00,40.00,0,-999,0,0.02
2013-4-16,27,22,15,-100,-100,-100,0,0,100,0.00,40.00,0,-999,0,0.02
2013-4-17,36,26,16,-100,-100,-100,0,0,100,0.00,40.00,0,-999,0,0.01
2013-4-18,49,34,20,-100,-100,-100,0,0,100,0.00,40.00,0,-999,0,0.01
2013-4-19,51,40,30,-100,-100,-100,0,0,100,0.00,40.00,0,-999,0,0.01
2013-4-20,60,42,29,-100,-100,-100,0,0,100,0.00,40.00,0,-999,0,0.00
2013-4-21,60,45,35,-100,-100,-100,0,0,100,0.00,40.00,0,-999,0,0.00
2013-4-22,59,45,35,-100,-100,-100,0,0,100,0.00,40.00,0,-999,0,0.01
2013-4-23,60,38,26,-100,-100,-100,0,0,100,0.00,40.00,0,-999,0,0.02
2013-4-24,52,46,34,-100,-100,-100,0,0,100,0.00,40.00,0,-999,0,0.02
2013-4-25,55,42,32,-100,-100,-100,0,0,100,0.00,40.00,0,-999,0,0.00
2013-4-26,60,48,36,-100,-100,-100,0,0,100,0.00,40.00,0,-999,0,0.01
2013-4-27,62,49,38,-100,-100,-100,0,0,100,0.00,40.00,0,-999,0,0.00
2013-4-28,62,49,37,-100,-100,-100,0,0,100,0.00,40.00,0,-999,0,0.01
2013-4-29,62,51,38,-100,-100,-100,0,0,100,0.00,40.00,0,-999,0,0.01
2013-4-30,57,48,36,-100,-100,-100,0,0,100,0.00,40.00,0,-999,0,0.01
2013-5-1,53,41,30,-100,-100,-100,0,0,100,0.00,40.00,0,-999,0,0.01
2013-5-2,64,46,30,-100,-100,-100,0,0,100,0.00,40.00,0,-999,0,0.00
2013-5-3,65,53,39,-100,-100,-100,0,0,100,0.00,40.00,0,-999,0,0.01
2013-5-4,54,44,35,-100,-100,-100,0,0,100,0.00,40.00,0,-999,0,0.01
2013-5-5,50,40,33,-100,-100,-100,0,0,100,0.00,40.00,0,-999,0,0.01
2013-5-6,39,36,33,-100,-100,-100,0,0,100,0.00,40.00,0,-999,0,0.04
2013-5-7,41,37,34,-100,-100,-100,0,0,100,0.00,40.00,0,-999,0,0.01
2013-5-8,49,42,35,-100,-100,-100,0,0,100,0.00,40.00,0,-999,0,0.01
2013-5-9,59,47,36,-100,-100,-100,0,0,100,0.00,40.00,0,-999,0,0.01
2013-5-10,62,50,39,-100,-100,-100,0,0,100,0.00,40.00,0,-999,0,0.00
2013-5-11,66,53,42,-100,-100,-100,0,0,100,0.00,40.00,0,-999,0,0.01
2013-5-12,65,56,45,-100,-100,-100,0,0,100,0.00,40.00,0,-999,0,0.01
2013-5-13,63,56,51,-100,-100,-100,0,0,100,0.00,40.00,0,-999,0,0.00
2013-5-14,61,50,42,-100,-100,-100,0,0,100,0.00,40.00,0,-999,0,0.01
2013-5-15,57,50,43,-100,-100,-100,0,0,100,0.00,40.00,0,-999,0,0.01
2013-5-16,43,40,37,-100,-100,-100,0,0,100,0.00,40.00,0,-999,0,0.02
2013-5-17,48,40,34,-100,-100,-100,0,0,100,0.00,40.00,0,-999,0,0.02
2013-5-18,51,40,32,-100,-100,-100,0,0,100,0.00,40.00,0,-999,0,0.01
2013-5-19,58,44,32,-100,-100,-100,0,0,100,0.00,40.00,0,-999,0,0.01
2013-5-20,63,50,32,-100,-100,-100,0,0,100,0.00,40.00,0,-999,0,0.01
2013-5-21,54,48,42,-100,-100,-100,0,0,100,0.00,40.00,0,-999,0,0.01
2013-5-22,47,41,29,-100,-100,-100,0,0,100,0.00,40.00,0,-999,0,0.01
2013-5-23,46,37,29,-100,-100,-100,0,0,100,0.00,40.00,0,-999,0,0.01
2013-5-24,56,43,29,-100,-100,-100,0,0,100,0.00,40.00,0,-999,0,0.00
2013-5-25,54,45,38,-100,-100,-100,0,0,100,0.00,40.00,0,-999,0,0.00
2013-5-26,52,44,38,-100,-100,-100,0,0,100,0.00,40.00,0,-999,0,0.01
2013-5-27,51,42,37,-100,-100,-100,0,0,100,0.00,40.00,0,-999,0,0.02
2013-5-28,52,44,38,-100,-100,-100,0,0,100,0.00,40.00,0,-999,0,0.01
2013-5-29,55,46,37,-100,-100,-100,0,0,100,0.00,40.00,0,-999,0,0.01
2013-5-30,60,48,38,-100,-100,-100,0,0,100,0.00,40.00,0,-999,0,0.01
2013-5-31,65,51,38,-100,-100,-100,0,0,100,0.00,40.00,0,-999,0,0.01
2013-6-1,70,57,43,-100,-100,-100,0,0,100,0.00,40.00,0,-999,0,0.01
2013-6-2,67,60,54,-100,-100,-100,0,0,100,0.00,40.00,0,-999,0,0.00
2013-6-3,70,57,42,-100,-100,-100,0,0,100,0.00,40.00,0,-999,0,0.01
2013-6-4,72,58,47,-100,-100,-100,0,0,100,0.00,40.00,0,-999,0,0.01
2013-6-5,75,60,47,-100,-100,-100,0,0,100,0.00,40.00,0,-999,0,0.01
2013-6-6,76,60,48,-100,-100,-100,0,0,100,0.00,40.00,0,-999,0,0.01
2013-6-7,77,62,49,-100,-100,-100,0,0,100,0.00,40.00,0,-999,0,0.01
2013-6-8,78,64,52,-100,-100,-100,0,0,100,0.00,40.00,0,-999,0,0.01
2013-6-9,77,62,53,-100,-100,-100,0,0,100,0.00,40.00,0,-999,0,0.02
2013-6-10,62,55,47,-100,-100,-100,0,0,100,0.00,40.00,0,-999,0,0.01
2013-6-11,62,54,48,-100,-100,-100,0,0,100,0.00,40.00,0,-999,0,0.01
2013-6-12,62,56,48,-100,-100,-100,0,0,100,0.00,40.00,0,-999,0,0.01
2013-6-13,58,49,38,-100,-100,-100,0,0,100,0.00,40.00,0,-999,0,0.01
2013-6-14,63,48,33,-100,-100,-100,0,0,100,0.00,40.00,0,-999,0,0.01
2013-6-15,64,53,39,-100,-100,-100,0,0,100,0.00,40.00,0,-999,0,0.00
2013-6-16,62,53,40,-100,-100,-100,0,0,100,0.00,40.00,0,-999,0,0.01
2013-6-17,65,55,40,-100,-100,-100,0,0,100,0.00,40.00,0,-999,0,0.01
2013-6-18,56,50,40,-100,-100,-100,0,0,100,0.00,40.00,0,-999,0,0.01
2013-6-19,54,45,35,-100,-100,-100,0,0,100,0.00,40.00,0,-999,0,0.01
2013-6-20,55,41,33,-100,-100,-100,0,0,100,0.00,40.00,0,-999,0,0.01
2013-6-22,64,57,45,-100,-100,-100,0,0,100,0.00,40.00,0,-999,0,0.00
2013-6-23,56,50,44,-100,-100,-100,0,0,100,0.00,40.00,0,-999,0,0.01
2013-6-24,46,44,43,-100,-100,-100,0,0,100,0.00,40.00,0,-999,0,0.03
2013-6-25,51,48,45,-100,-100,-100,0,0,100,0.00,40.00,0,-999,0,0.04
2013-6-26,65,57,49,-100,-100,-100,0,0,100,0.00,40.00,0,-999,0,0.01
2013-6-27,74,63,54,-100,-100,-100,0,0,100,0.00,40.00,0,-999,0,0.00
2013-6-28,77,66,53,-100,-100,-100,0,0,100,0.00,40.00,0,-999,0,0.01
2013-6-29,79,67,53,-100,-100,-100,0,0,100,0.00,40.00,0,-999,0,0.01
2013-6-30,79,69,55,-100,-100,-100,0,0,100,0.00,40.00,0,-999,0,0.01
2013-7-1,81,66,59,-100,-100,-100,0,0,100,0.00,40.00,0,-999,0,0.00
2013-7-2,78,64,56,-100,-100,-100,0,0,100,0.00,40.00,0,-999,0,0.01
2013-7-3,77,63,52,-100,-100,-100,0,0,100,0.00,40.00,0,-999,0,0.02
2013-7-4,78,65,54,-100,-100,-100,0,0,100,0.00,40.00,0,-999,0,0.01
2013-7-5,72,65,56,-100,-100,-100,0,0,100,0.00,40.00,0,-999,0,0.01
2013-7-6,71,63,59,-100,-100,-100,0,0,100,0.00,40.00,0,-999,0,0.01
2013-7-7,71,64,57,-100,-100,-100,0,0,100,0.00,40.00,0,-999,0,0.01
2013-7-8,71,62,56,-100,-100,-100,0,0,100,0.00,40.00,0,-999,0,0.01
2013-7-9,71,60,53,-100,-100,-100,0,0,100,0.00,40.00,0,-999,0,0.01
2013-7-10,71,63,56,-100,-100,-100,0,0,100,0.00,40.00,0,-999,0,0.01
2013-7-11,67,60,55,-100,-100,-100,0,0,100,0.00,40.00,0,-999,0,0.01
2013-7-12,69,58,47,-100,-100,-100,0,0,100,0.00,40.00,0,-999,0,0.01
2013-7-13,69,60,46,-100,-100,-100,0,0,100,0.00,40.00,0,-999,0,0.01
2013-7-14,72,61,48,-100,-100,-100,0,0,100,0.00,40.00,0,-999,0,0.00
2013-7-15,72,60,51,-100,-100,-100,0,0,100,0.00,40.00,0,-999,0,0.01
2013-7-16,68,60,55,-100,-100,-100,0,0,100,0.00,40.00,0,-999,0,0.01
2013-7-17,73,60,44,-100,-100,-100,0,0,100,0.00,40.00,0,-999,0,0.01
2013-7-18,78,66,50,-100,-100,-100,0,0,100,0.00,40.00,0,-999,0,0.00
2013-7-19,81,66,53,-100,-100,-100,0,0,100,0.00,40.00,0,-999,0,0.00
2013-7-20,83,69,56,-100,-100,-100,0,0,100,0.00,40.00,0,-999,0,0.00
2013-7-21,82,69,58,-100,-100,-100,0,0,100,0.00,40.00,0,-999,0,0.01
2013-7-22,76,65,53,-100,-100,-100,0,0,100,0.00,40.00,0,-999,0,0.01
2013-7-23,67,60,53,-100,-100,-100,0,0,100,0.00,40.00,0,-999,0,0.01
2013-7-24,71,62,50,-100,-100,-100,0,0,100,0.00,40.00,0,-999,0,0.01
2013-7-25,73,58,51,-100,-100,-100,0,0,100,0.00,40.00,0,-999,0,0.03
2013-7-26,70,60,50,-100,-100,-100,0,0,100,0.00,40.00,0,-999,0,0.02
2013-7-27,71,60,49,-100,-100,-100,0,0,100,0.00,40.00,0,-999,0,0.01
2013-7-28,70,60,49,-100,-100,-100,0,0,100,0.00,40.00,0,-999,0,0.01
2013-7-29,68,59,50,-100,-100,-100,0,0,100,0.00,40.00,0,-999,0,0.01
2013-7-30,68,61,53,-100,-100,-100,0,0,100,0.00,40.00,0,-999,0,0.01
2013-7-31,67,60,51,-100,-100,-100,0,0,100,0.00,40.00,0,-999,0,0.01
2013-8-1,63,55,45,-100,-100,-100,0,0,100,0.00,40.00,0,-999,0,0.01
2013-8-2,68,55,39,-100,-100,-100,0,0,100,0.00,40.00,0,-999,0,0.01
2013-8-3,69,58,44,-100,-100,-100,0,0,100,0.00,40.00,0,-999,0,0.01
2013-8-4,72,62,48,-100,-100,-100,0,0,100,0.00,40.00,0,-999,0,0.01
2013-8-5,72,61,51,-100,-100,-100,0,0,100,0.00,40.00,0,-999,0,0.01
2013-8-6,72,60,47,-100,-100,-100,0,0,100,0.00,40.00,0,-999,0,0.01
2013-8-7,65,57,50,-100,-100,-100,0,0,100,0.00,40.00,0,-999,0,0.00
2013-8-8,63,53,42,-100,-100,-100,0,0,100,0.00,40.00,0,-999,0,0.01
2013-8-9,64,53,42,-100,-100,-100,0,0,100,0.00,40.00,0,-999,0,0.01
2013-8-10,63,55,45,-100,-100,-100,0,0,100,0.00,40.00,0,-999,0,0.01
2013-8-11,66,54,42,-100,-100,-100,0,0,100,0.00,40.00,0,-999,0,0.00
2013-8-12,69,58,46,-100,-100,-100,0,0,100,0.00,40.00,0,-999,0,0.01
2013-8-13,71,58,45,-100,-100,-100,0,0,100,0.00,40.00,0,-999,0,0.00
2013-8-14,74,61,50,-100,-100,-100,0,0,100,0.00,40.00,0,-999,0,0.00
2013-8-15,71,61,52,-100,-100,-100,0,0,100,0.00,40.00,0,-999,0,1.62
2013-8-16,71,62,55,-100,-100,-100,0,0,100,0.00,40.00,0,-999,0,1.61
2013-8-18,78,68,60,-100,-100,-100,0,0,100,0.00,40.00,0,-999,0,0.00
2013-8-19,72,63,57,-100,-100,-100,0,0,100,0.00,40.00,0,-999,0,0.01
2013-8-20,71,60,53,-100,-100,-100,0,0,100,0.00,40.00,0,-999,0,0.02
2013-8-21,67,57,48,-100,-100,-100,0,0,100,0.00,40.00,0,-999,0,0.01
2013-8-22,65,57,47,-100,-100,-100,0,0,100,0.00,40.00,0,-999,0,0.01
2013-8-23,65,57,47,-100,-100,-100,0,0,100,0.00,40.00,0,-999,0,0.01
2013-8-24,63,57,51,-100,-100,-100,0,0,100,0.00,40.00,0,-999,0,0.00
2013-8-25,61,55,50,-100,-100,-100,0,0,100,0.00,40.00,0,-999,0,0.00
2013-8-26,63,55,50,-100,-100,-100,0,0,100,0.00,40.00,0,-999,0,0.01
2013-8-27,65,55,48,-100,-100,-100,0,0,100,0.00,40.00,0,-999,0,0.01
2013-8-28,63,60,56,-100,-100,-100,0,0,100,0.00,40.00,0,-999,0,0.00
2013-8-29,68,60,54,-100,-100,-100,0,0,100,0.00,40.00,0,-999,0,0.01
2013-8-30,74,64,57,-100,-100,-100,0,0,100,0.00,40.00,0,-999,0,0.00
2013-8-31,71,62,54,-100,-100,-100,0,0,100,0.00,40.00,0,-999,0,0.01
2013-9-1,69,60,54,-100,-100,-100,0,0,100,0.00,40.00,0,-999,0,0.01
2013-9-2,67,58,55,-100,-100,-100,0,0,100,0.00,40.00,0,-999,0,0.01
2013-9-3,65,58,53,-100,-100,-100,0,0,100,0.00,40.00,0,-999,0,0.01
2013-9-4,67,60,53,-100,-100,-100,0,0,100,0.00,40.00,0,-999,0,0.01
2013-9-5,64,59,54,-100,-100,-100,0,0,100,0.00,40.00,0,-999,0,0.01
2013-9-6,69,60,53,-100,-100,-100,0,0,100,0.00,40.00,0,-999,0,0.01
2013-9-7,69,60,47,-100,-100,-100,0,0,100,0.00,40.00,0,-999,0,0.00
2013-9-8,71,61,50,-100,-100,-100,0,0,100,0.00,40.00,0,-999,0,0.01
2013-9-9,70,59,47,-100,-100,-100,0,0,100,0.00,40.00,0,-999,0,0.01
2013-9-10,74,58,46,-100,-100,-100,0,0,100,0.00,40.00,0,-999,0,0.01
2013-9-11,64,58,49,-100,-100,-100,0,0,100,0.00,40.00,0,-999,0,0.01
2013-9-12,67,58,51,-100,-100,-100,0,0,100,0.00,40.00,0,-999,0,0.00
2013-9-13,67,56,47,-100,-100,-100,0,0,100,0.00,40.00,0,-999,0,0.01
2013-9-14,69,56,48,-100,-100,-100,0,0,100,0.00,40.00,0,-999,0,0.01
2013-9-15,67,58,50,-100,-100,-100,0,0,100,0.00,40.00,0,-999,0,0.00
2013-9-16,67,58,54,-100,-100,-100,0,0,100,0.00,40.00,0,-999,0,0.01
2013-9-17,56,50,42,-100,-100,-100,0,0,100,0.00,40.00,0,-999,0,0.01
2013-9-18,46,37,33,-100,-100,-100,0,0,100,0.00,40.00,0,-999,0,0.02
2013-9-19,68,52,37,-100,-100,-100,0,0,100,0.00,40.00,0,-999,0,0.00
2013-9-20,61,54,46,-100,-100,-100,0,0,100,0.00,40.00,0,-999,0,0.01
2013-9-21,47,41,32,-100,-100,-100,0,0,100,0.00,40.00,0,-999,0,0.04
2013-9-22,51,39,28,-100,-100,-100,0,0,100,0.00,40.00,0,-999,0,0.01
2013-9-23,62,48,34,-100,-100,-100,0,0,100,0.00,40.00,0,-999,0,0.00
2013-9-24,55,50,41,-100,-100,-100,0,0,100,0.00,40.00,0,-999,0,0.01
2013-9-25,41,36,29,-100,-100,-100,0,0,100,0.00,40.00,0,-999,0,0.01
2013-9-26,42,33,27,-100,-100,-100,0,0,100,0.00,40.00,0,-999,0,0.01
2013-9-27,54,37,26,-100,-100,-100,0,0,100,0.00,40.00,0,-999,0,0.01
2013-9-28,60,46,35,-100,-100,-100,0,0,100,0.00,40.00,0,-999,0,0.00
2013-10-2,53,47,39,-100,-100,-100,0,0,100,0.00,40.00,0,-999,0,0.01
2013-10-3,43,39,31,-100,-100,-100,0,0,100,0.00,40.00,0,-999,0,0.01
2013-10-4,48,38,27,-100,-100,-100,0,0,100,0.00,40.00,0,-999,0,0.00
2013-10-5,62,44,28,-100,-100,-100,0,0,100,0.00,40.00,0,-999,0,0.01
2013-10-6,67,53,41,-100,-100,-100,0,0,100,0.00,40.00,0,-999,0,0.00
2013-10-7,59,50,43,-100,-100,-100,0,0,100,0.00,40.00,0,-999,0,0.01
2013-10-8,54,44,36,-100,-100,-100,0,0,100,0.00,40.00,0,-999,0,0.01
2013-10-9,38,34,31,-100,-100,-100,0,0,100,0.00,40.00,0,-999,0,0.01
2013-10-10,47,37,29,-100,-100,-100,0,0,100,0.00,40.00,0,-999,0,0.01
2013-10-11,52,41,31,-100,-100,-100,0,0,100,0.00,40.00,0,-999,0,0.00
2013-10-12,51,41,35,-100,-100,-100,0,0,100,0.00,40.00,0,-999,0,0.01
2013-10-13,45,34,30,-100,-100,-100,0,0,100,0.00,40.00,0,-999,0,0.01
2013-10-21,47,43,41,-100,-100,-100,0,0,100,0.00,40.00,0,-999,0,0.00
2013-10-22,62,49,38,-100,-100,-100,0,0,100,0.00,40.00,0,-999,0,0.01
2013-10-23,56,44,38,-100,-100,-100,0,0,100,0.00,40.00,0,-999,0,0.00
2013-10-24,56,51,39,-100,-100,-100,0,0,100,0.00,40.00,0,-999,0,0.00
2013-10-25,44,39,36,-100,-100,-100,0,0,100,0.00,40.00,0,-999,0,0.00
2013-10-26,59,45,37,-100,-100,-100,0,0,100,0.00,40.00,0,-999,0,0.01
2013-10-27,51,43,35,-100,-100,-100,0,0,100,0.00,40.00,0,-999,0,0.00
2013-11-2,43,41,39,-100,-100,-100,0,0,100,0.00,40.00,0,-999,0,0.00
2013-11-3,45,39,31,-100,-100,-100,0,0,100,0.00,40.00,0,-999,0,0.00
2013-11-4,35,28,20,-100,-100,-100,0,0,100,0.00,40.00,0,-999,0,0.02
2013-11-5,48,34,21,-100,-100,-100,0,0,100,0.00,40.00,0,-999,0,0.00
2013-11-6,50,42,33,-100,-100,-100,0,0,100,0.00,40.00,0,-999,0,0.00
2013-11-7,43,43,43,-100,-100,-100,0,0,100,0.00,40.00,0,-999,0,0.00
2013-11-8,51,46,41,-100,-100,-100,0,0,100,0.00,40.00,0,-999,0,0.00
2013-11-12,52,44,38,-100,-100,-100,0,0,100,0.00,40.00,0,-999,0,0.01
2013-11-13,51,50,50,-100,-100,-100,0,0,100,0.00,40.00,0,-999,0,0.00
2013-11-14,50,44,40,-100,-100,-100,0,0,100,0.00,40.00,0,-999,0,0.00
2013-11-15,38,38,38,-100,-100,-100,0,0,100,0.00,40.00,0,-999,0,0.00
2013-11-16,40,34,32,-100,-100,-100,0,0,100,0.00,40.00,0,-999,0,0.00
2013-11-17,50,50,50,-100,-100,-100,0,0,100,0.00,40.00,0,-999,0,0.00
2013-11-18,44,37,34,-100,-100,-100,0,0,100,0.00,40.00,0,-999,0,0.00
2013-11-19,40,36,33,-100,-100,-100,0,0,100,0.00,40.00,0,-999,0,0.01
2013-11-20,35,33,31,-100,-100,-100,0,0,100,0.00,40.00,0,-999,0,0.03
2013-11-21,31,23,20,-100,-100,-100,0,0,100,0.00,40.00,0,-999,0,0.02
2013-11-22,21,18,16,-100,-100,-100,0,0,100,0.00,40.00,0,-999,0,0.00
2013-11-23,33,26,19,-100,-100,-100,0,0,100,0.00,40.00,0,-999,0,0.00
2013-11-24,42,28,20,-100,-100,-100,0,0,100,0.00,40.00,0,-999,0,0.00
2013-11-25,35,31,27,-100,-100,-100,0,0,100,0.00,40.00,0,-999,0,0.00
2013-11-26,52,41,34,-100,-100,-100,0,0,100,0.00,40.00,0,-999,0,0.00
2013-11-27,45,37,31,-100,-100,-100,0,0,100,0.00,40.00,0,-999,0,0.00
2013-11-28,43,32,27,-100,-100,-100,0,0,100,0.00,40.00,0,-999,0,0.01
2013-11-29,42,31,24,-100,-100,-100,0,0,100,0.00,40.00,0,-999,0,0.01
2013-11-30,47,34,28,-100,-100,-100,0,0,100,0.00,40.00,0,-999,0,0.00
2013-12-1,55,41,28,-100,-100,-100,0,0,100,0.00,40.00,0,-999,0,0.00
2013-12-2,46,44,39,-100,-100,-100,0,0,100,0.00,40.00,0,-999,0,0.00
2013-12-3,29,18,6,-100,-100,-100,0,0,100,0.00,40.00,0,-999,0,0.05
2013-12-4,25,14,8,-100,-100,-100,0,0,100,0.00,40.00,0,-999,0,0.02
2013-12-5,25,13,-2,-100,-100,-100,0,0,100,0.00,40.00,0,-999,0,0.01
2013-12-6,21,17,16,-100,-100,-100,0,0,100,0.00,40.00,0,-999,0,0.00
2013-12-7,16,12,6,-100,-100,-100,0,0,100,0.00,40.00,0,-999,0,0.06
2013-12-8,20,7,2,-100,-100,-100,0,0,100,0.00,40.00,0,-999,0,0.01
2013-12-9,33,20,4,-100,-100,-100,0,0,100,0.00,40.00,0,-999,0,0.00
2013-12-10,43,33,25,-100,-100,-100,0,0,100,0.00,40.00,0,-999,0,0.01
2013-12-11,44,29,20,-100,-100,-100,0,0,100,0.00,40.00,0,-999,0,0.00
2013-12-12,35,32,29,-100,-100,-100,0,0,100,0.00,40.00,0,-999,0,0.00
2013-12-13,42,31,23,-100,-100,-100,0,0,100,0.00,40.00,0,-999,0,0.01
2013-12-14,49,38,25,-100,-100,-100,0,0,100,0.00,40.00,0,-999,0,0.00
2013-12-15,56,47,38,-100,-100,-100,0,0,100,0.00,40.00,0,-999,0,0.00
2013-12-16,60,42,34,-100,-100,-100,0,0,100,0.00,40.00,0,-999,0,0.00
2013-12-17,48,43,38,-100,-100,-100,0,0,100,0.00,40.00,0,-999,0,0.01
2013-12-18,47,46,45,-100,-100,-100,0,0,100,0.00,40.00,0,-999,0,0.00
2013-12-19,33,24,16,-100,-100,-100,0,0,100,0.00,40.00,0,-999,0,0.02
2013-12-20,37,17,10,-100,-100,-100,0,0,100,0.00,40.00,0,-999,0,0.00
2013-12-21,36,30,25,-100,-100,-100,0,0,100,0.00,40.00,0,-999,0,0.00
2013-12-22,45,35,26,-100,-100,-100,0,0,100,0.00,40.00,0,-999,0,0.00
2013-12-23,50,36,29,-100,-100,-100,0,0,100,0.00,40.00,0,-999,0,0.00
2013-12-24,51,33,28,-100,-100,-100,0,0,100,0.00,40.00,0,-999,0,0.00
2013-12-25,46,34,28,-100,-100,-100,0,0,100,0.00,40.00,0,-999,0,0.01
2013-12-26,54,39,30,-100,-100,-100,0,0,100,0.00,40.00,0,-999,0,0.01
2013-12-27,51,45,35,-100,-100,-100,0,0,100,0.00,40.00,0,-999,0,0.00
2013-12-28,37,32,28,-100,-100,-100,0,0,100,0.00,40.00,0,-999,0,0.00
2013-12-29,48,32,23,-100,-100,-100,0,0,100,0.00,40.00,0,-999,0,0.00
2013-12-30,43,41,36,-100,-100,-100,0,0,100,0.00,40.00,0,-999,0,0.00
2013-12-31,49,39,30,-100,-100,-100,0,0,100,0.00,40.00,0,-999,0,0.00
2014-1-1,51,35,29,-100,-100,-100,0,0,100,0.00,40.00,0,-999,0,0.01
2014-1-2,52,38,33,-100,-100,-100,0,0,100,0.00,40.00,0,-999,0,0.00